{"data":{"norad_id":54076,"intl_designator":"2022-136AB","name":"STARLINK-5201","alt_names":[],"object_type":"PAYLOAD","status":"ACTIVE","operator":null,"country":"US","launch_date":"2022-10-20","launch_site_code":"AFETR","launch_vehicle":null,"mission":null,"orbit_class":"UNKNOWN","rcs_meters":null,"size_class":null,"mass_kg":null,"dimensions":null,"purposes":["comms"],"wikipedia_slug":null,"has_3d_model":false,"image_url":null,"decayed_at":null,"tle_current":{"epoch":"2026-09-20T05:07:06.816576Z","epoch_age_seconds":111203,"freshness":"FRESH","line1":"1 54076U 22136AB  26263.21327334  .00002567  00000+0  84487-4 0  9994","line2":"2 54076  53.1605 180.8523 0000995  91.9438 268.1679 15.35392843216346","mean_motion":15.35392843,"eccentricity":9.95e-5,"inclination_deg":53.1605,"raan_deg":180.8523,"arg_perigee_deg":91.9438,"mean_anomaly_deg":268.1679,"bstar":8.4487e-5,"rev_number":21634,"period_min":93.787072576578,"perigee_km":459.07352170644,"apogee_km":460.43426199392,"semimajor_km":6837.8908918502,"source":"CELESTRAK","updated_at":"2026-09-21T09:00:33.080504Z"}}}